Location: Unspecified
(50.7693°N, 0.0000°E)
Time: 06:49:57
(UTC+00:00)

Transit 4A - Pass Details

Date: 02 July 2019
Orbit: 862 x 982 km, 66.8° (Epoch: 17 July)

Event Time Altitude Azimuth Distance (km) Brightness Sun altitude
Rises 14:13:04 0° 322° (NW) 3,694 11.1 52.7°
Reaches altitude 10° 14:15:39 10° 322° (NW) 2,736 10.5 52.3°
Maximum altitude 14:22:05 85° 235° (SW) 975 9.2 51.5°
Drops below altitude 10° 14:28:19 10° 148° (SSE) 2,658 10.4 50.7°
Sets 14:30:48 0° 148° (SSE) 3,582 11.0 50.3°
